Location: Lahas
(43.5538°N, 0.8906°E)
Time: 05:30:58
(UTC+00:00)

Cosmos 2360 Rocket - Pass Details

Date: 15 May 2026
Orbit: 831 x 845 km, 71.0° (Epoch: 6 June)

Event Time Altitude Azimuth Distance (km) Brightness Sun altitude
Rises 20:02:06 0° 344° (NNW) 3,414 6.3 -8.1°
Reaches altitude 10° 20:05:20 10° 2° (N) 2,476 5.1 -8.6°
Maximum altitude 20:09:18 19° 47° (NE) 1,910 4.0 -9.2°
Drops below altitude 10° 20:13:15 10° 92° (E) 2,465 4.1 -9.8°
Enters shadow 20:13:59 - 97° (E) 2,660 4.3 -9.9°
